TimeEST,TemperatureF,Dew PointF,Humidity,Sea Level PressureIn,VisibilityMPH,Wind Direction,Wind SpeedMPH,Gust SpeedMPH,PrecipitationIn,Events,Conditions,WindDirDegrees,DateUTC
12:53 AM,-8.0,-16.1,68,30.17,10.0,NW,17.3,29.9,N/A,,Clear,320,2013-02-07 05:53:00
1:53 AM,-9.9,-18.0,68,30.21,10.0,NW,11.5,-,N/A,,Clear,310,2013-02-07 06:53:00
2:53 AM,-11.9,-18.9,71,30.22,10.0,NW,12.7,-,N/A,,Clear,320,2013-02-07 07:53:00
3:53 AM,-13.0,-22.0,64,30.25,10.0,NW,11.5,19.6,N/A,,Clear,310,2013-02-07 08:53:00
4:53 AM,-14.1,-25.1,58,30.28,10.0,NW,18.4,29.9,N/A,,Clear,310,2013-02-07 09:53:00
5:53 AM,-16.1,-26.0,61,30.31,10.0,NW,23.0,35.7,N/A,,Clear,310,2013-02-07 10:53:00
6:53 AM,-17.0,-27.9,58,30.35,10.0,WNW,21.9,36.8,0.00,,Clear,300,2013-02-07 11:53:00
7:26 AM,-16.6,-27.4,58,30.28,6.0,WNW,24.2,32.2,N/A,,Haze,300,2013-02-07 12:26:00
7:41 AM,-16.6,-25.6,64,30.28,10.0,NW,23.0,31.1,N/A,,Mostly Cloudy,310,2013-02-07 12:41:00
7:53 AM,-17.0,-26.0,64,30.38,8.0,NW,23.0,34.5,N/A,,Scattered Clouds,310,2013-02-07 12:53:00
8:53 AM,-16.1,-27.0,58,30.42,10.0,NW,19.6,28.8,N/A,,Clear,310,2013-02-07 13:53:00
9:53 AM,-14.1,-26.0,55,30.44,10.0,NW,19.6,28.8,N/A,,Clear,310,2013-02-07 14:53:00
10:53 AM,-11.9,-26.0,50,30.46,10.0,NNW,17.3,27.6,N/A,,Clear,330,2013-02-07 15:53:00
11:53 AM,-9.9,-24.0,50,30.46,10.0,NNW,17.3,24.2,N/A,,Clear,330,2013-02-07 16:53:00
12:53 PM,-8.0,-23.1,48,30.48,10.0,NW,9.2,-,N/A,,Clear,320,2013-02-07 17:53:00
1:53 PM,-5.1,-20.9,47,30.48,10.0,NW,15.0,20.7,N/A,,Clear,310,2013-02-07 18:53:00
2:53 PM,-5.1,-20.9,47,30.48,10.0,NW,10.4,20.7,N/A,,Clear,320,2013-02-07 19:53:00
3:53 PM,-5.1,-20.9,47,30.50,10.0,WNW,12.7,-,N/A,,Clear,300,2013-02-07 20:53:00
4:53 PM,-7.1,-20.9,51,30.52,10.0,NW,5.8,-,N/A,,Clear,320,2013-02-07 21:53:00
5:53 PM,-8.0,-20.0,56,30.54,10.0,NW,6.9,-,N/A,,Clear,310,2013-02-07 22:53:00
6:53 PM,-9.0,-20.0,59,30.56,10.0,NW,6.9,-,N/A,,Clear,320,2013-02-07 23:53:00
7:53 PM,-9.9,-20.9,59,30.56,10.0,NW,6.9,-,N/A,,Clear,320,2013-02-08 00:53:00
8:53 PM,-11.0,-20.0,64,30.57,10.0,Calm,Calm,-,N/A,,Clear,0,2013-02-08 01:53:00
9:53 PM,-9.9,-18.9,65,30.58,10.0,WNW,4.6,-,N/A,,Clear,300,2013-02-08 02:53:00
10:53 PM,-11.0,-18.0,71,30.57,10.0,NW,5.8,-,N/A,,Clear,320,2013-02-08 03:53:00
11:53 PM,-11.9,-18.9,71,30.57,10.0,NNW,6.9,-,N/A,,Clear,330,2013-02-08 04:53:00